This is the latest recevied weather packets stored in our database for station/object LA1HSA-13. If no packets are shown the sender has not sent any weather packets the latest 1 day(s).
| Time | Temp. | Humidity | Pressure | Rain* | Wind** | Luminosity | Snow |
|---|---|---|---|---|---|---|---|
| 1777984203 | 8.33° C | 31% | 1009.4 hPa | 0 mm | 1.34 m/s, 54° | - | - |
| 1777983603 | 8.89° C | 29% | 1009.2 hPa | 0 mm | 0.89 m/s, 49° | - | - |
| 1777983003 | 10° C | 32% | 1009.4 hPa | 0 mm | 1.79 m/s, 349° | - | - |
| 1777982403 | 10.56° C | 34% | 1009.3 hPa | 0 mm | 1.34 m/s, 5° | - | - |
| 1777981803 | 10° C | 32% | 1009.6 hPa | 0 mm | 1.79 m/s, 2° | - | - |
| 1777981203 | 10.56° C | 32% | 1009.3 hPa | 0 mm | 1.34 m/s, 353° | - | - |
| 1777980603 | 9.44° C | 35% | 1009.3 hPa | 0 mm | 0.89 m/s, 66° | - | - |
| 1777980003 | 8.89° C | 38% | 1009.2 hPa | 0 mm | 1.79 m/s, 66° | - | - |
| 1777979403 | 8.33° C | 33% | 1009.4 hPa | 0 mm | 1.34 m/s, 48° | - | - |
| 1777978803 | 9.44° C | 34% | 1009.3 hPa | 0 mm | 1.34 m/s, 47° | - | - |
| 1777978203 | 8.89° C | 37% | 1009.6 hPa | 0 mm | 1.79 m/s, 43° | - | - |
| 1777977603 | 8.89° C | 36% | 1009.5 hPa | 0 mm | 0.89 m/s, 323° | - | - |
| 1777977003 | 9.44° C | 36% | 1009.4 hPa | 0 mm | 1.34 m/s, 327° | - | - |
| 1777976403 | 7.78° C | 37% | 1009.6 hPa | 0 mm | 0.89 m/s, 25° | - | - |
| 1777975803 | 7.22° C | 38% | 1009.9 hPa | 0 mm | 1.79 m/s, 58° | - | - |
| 1777975203 | 7.22° C | 38% | 1009.7 hPa | 0 mm | 0 m/s | - | - |
| 1777974603 | 7.78° C | 41% | 1009.9 hPa | 0 mm | 0.89 m/s, 18° | - | - |
| 1777974003 | 7.22° C | 39% | 1009.7 hPa | 0 mm | 0.45 m/s, 51° | - | - |
| 1777973403 | 7.22° C | 43% | 1009.8 hPa | 0 mm | 1.79 m/s, 68° | - | - |
| 1777972803 | 6.67° C | 44% | 1009.7 hPa | 0 mm | 1.34 m/s, 52° | - | - |
| 1777972203 | 7.78° C | 42% | 1009.7 hPa | 0 mm | 1.79 m/s, 353° | - | - |
| 1777971604 | 7.78° C | 44% | 1009.7 hPa | 0 mm | 0.89 m/s, 45° | - | - |
| 1777971003 | 6.11° C | 44% | 1009.8 hPa | 0 mm | 1.34 m/s, 49° | - | - |
| 1777970403 | 6.67° C | 41% | 1009.7 hPa | 0 mm | 1.79 m/s, 64° | - | - |
| 1777969803 | 6.67° C | 42% | 1009.6 hPa | 0 mm | 0.89 m/s, 84° | - | - |
* Rain latest hour (hover to see other rain measurements)
** Current wind speed in m/s (hover to see current wind gust speed)